STARLINK-11207 [DTC] (60933 NORAD) Tracking and Keplerian Element Data

This shows tracking and keplerian element data for the satellite.

Feedback or suggestion? Click here.




ElementValue
Catalog60933
NameSTARLINK-11207 [DTC]
Epoch Orbit609
Epoch Day286.91668981
Epoch Year2024
RAAN348.7855
Inclination53.1584
Eccentricity0.0001227
Argument of Perigee81.3557
Mean Anonmoly114.3649
Mean Motion15.69759087
Decay Rate-0.00097818
L11 60933U 24155K 24286.91668981 -.00097818 00000+0 -81039-3 0 9996
L22 60933 53.1584 348.7855 0001227 81.3557 114.3649 15.69759087 6090



Live tracking and technical data element details for STARLINK-11207 [DTC] (NORAD 60933). STARLINK-11207 [DTC] can be tracked NOW for your location showing map with azimuth and elevation plus other details from your city location.







IsCatalogInMostPopularTable: catalog: 60933, numindb: 9
Update: records affected: 1



GetName: 60933 STARLINK-11207 [DTC]

Hit Count: updated at: Fri, 06 Dec 2024 11:44:04 GMT